Regional Weather Roundup
Issued by NWS

Home | Current Version | Previous Version | Text Only | Print | Product List | Glossary Off
Versions: 1 2 3 4 5 6 7 8 9 10 11 12 13 14 15 16 17 18 19 20 21 22 23 24 25 26 27 28 29 30 31 32 33 34 35 36 37 38 39 40 41 42 43 44 45 46 47 48 49 50

000
ASUS43 KIND 202109
RWRIN

WEATHER ROUNDUP FOR INDIANA
NATIONAL WEATHER SERVICE INDIANAPOLIS IN
500 PM EDT MON OCT 20 2014

NOTE: "FAIR" INDICATES FEW OR NO CLOUDS BELOW 12,000 FEET WITH NO
SIGNIFICANT WEATHER AND/OR OBSTRUCTIONS TO VISIBILITY.

* - STATION DOES NOT REPORT WEATHER SUCH AS PRECIPITATION OR FOG.

+ - STATION NOT QUALITY CONTROLLED BY THE NATIONAL WEATHER SERVICE.
    USE DATA WITH CAUTION...ESPECIALLY DEWPOINT AND RELATIVE
    HUMIDITY OBSERVATIONS.

INZ001>003-010>013-019-020-202200-
NORTHWEST INDIANA

CITY           SKY/WX    TMP DP  RH WIND       PRES   REMARKS
GARY /AIRPORT/ PTSUNNY   57  48  72 N10       29.87R
KNOX *+        SUNNY     62  47  58 NW9G20    29.85R
LA PORTE +     MOSUNNY   58  50  74 N13G20    29.87R
MICHIGAN CITY+ CLOUDY    54  46  76 N9        29.87R
MONTICELLO +   MOSUNNY   66  49  53 NW13      29.83R
RENSSELAER +   MOSUNNY   64  46  52 NW8       29.85R
VALPARAISO     PTSUNNY   59  47  64 N8        29.86R

$$

LMZ046-743>745-202200-
SOUTHERN LAKE MICHIGAN

STATION/POSITION TIME  TEMP WIND        PRES
                       AIR  DIR/SP/G
                 (UTC) (F)  (DEG/KT/KT) (MB)
MICHIGAN CITY    2100   53  350/ 12/ 13   N/A

$$

INZ004-005-014>016-021>024-202200-
NORTH CENTRAL INDIANA

CITY           SKY/WX    TMP DP  RH WIND       PRES   REMARKS
ELKHART        CLOUDY    57  46  67 NW15      29.85R
GOSHEN         PTSUNNY   61  50  67 NW13      29.82R
LOGANSPORT +   PTSUNNY   64  45  48 W7        29.83S
PERU/GRISSOM   MOSUNNY   65  51  60 NW14      29.82R
ROCHESTER +    MOSUNNY   64  48  55 NW10      29.83R
SOUTH BEND     CLOUDY    56  48  74 NW12G23   29.87R
WARSAW +       PTSUNNY   63  48  59 NW13      29.82R

$$

INZ006>009-017-018-025>027-202200-
NORTHEAST INDIANA

CITY           SKY/WX    TMP DP  RH WIND       PRES   REMARKS
ANGOLA *+      PTSUNNY   57  48  72 NW7       29.82R
AUBURN +       CLOUDY    55  50  82 CALM      29.82S
FORT WAYNE     PTSUNNY   61  51  70 SW7       29.83R
HUNTINGTON +   PTSUNNY   60  51  72 W5        29.81S

$$

INZ028-029-035-036-043>045-051>053-202200-
WEST CENTRAL INDIANA

CITY           SKY/WX    TMP DP  RH WIND       PRES   REMARKS
GREENCASTLE +  MOSUNNY   68  45  42 NW9G16    29.85S
LAFAYETTE      MOSUNNY   66  48  52 NW13      29.84R
TERRE HAUTE    MOSUNNY   70  43  37 W12G20    29.86S

$$

INZ030>032-037>040-046>048-054>057-064-065-202200-
CENTRAL INDIANA

CITY           SKY/WX    TMP DP  RH WIND       PRES   REMARKS
CP ATTERBURY + MOSUNNY   68  48  49 W8        29.86R
FRANKFORT +    PTSUNNY   68  48  48 W14G20    29.86R
GREENWOOD *+   MOSUNNY   68  45  42 W12G21    29.85S
INDIANAPOLIS   MOSUNNY   66  44  45 W16       29.84S
-EAGLE CREEK   MOSUNNY   67  46  47 W15G21    29.83S
KOKOMO *+      PTSUNNY   64  48  55 NW10      29.83R
MARION +       PTSUNNY   64  47  54 NW9G16    29.83R HAZE
MT COMFORT *+  MOSUNNY   66  36  32 W16       29.84S
SHELBYVILLE    MOSUNNY   67  49  52 W13       29.84S
ZIONSVILLE +   MOSUNNY   67  44  43 W12G20    29.84R

$$

INZ033-034-041-042-049-050-058-059-202200-
EAST CENTRAL INDIANA

CITY           SKY/WX    TMP DP  RH WIND       PRES   REMARKS
MUNCIE         PTSUNNY   64  49  57 W12       29.82S

$$

INZ060-061-067>069-081>083-085>088-202200-
SOUTHWEST INDIANA

CITY           SKY/WX    TMP DP  RH WIND       PRES   REMARKS
EVANSVILLE     SUNNY     72  53  51 W14       29.89F
HUNTINGBURG *+ PTSUNNY   70  54  56 W14       29.89S
WASHINGTON +   PTSUNNY   70  51  51 W9G16     29.87S

$$

INZ062-063-066-070>080-084-089>092-202200-
SOUTH CENTRAL AND SOUTHEAST INDIANA

CITY           SKY/WX    TMP DP  RH WIND       PRES   REMARKS
BLOOMINGTON    MOSUNNY   68  49  50 VRB5      29.86F

$$



USA.gov is the U.S. government's official web portal to all federal, state and local government web resources and services.